Location: Newark
(25.0000°N, 73.5000°E)
Time: 05:35:22
(UTC+00:00)

Altair - Pass Details

Date: 02 March 2021
Orbit: 1501 x 1683 km, 47.2° (Epoch: 12 April)

Event Time Altitude Azimuth Distance (km) Brightness Sun altitude
Rises 17:30:06 0° 309° (NW) 4,689 10.5 -58.5°
Reaches altitude 10° 17:34:27 10° 327° (NNW) 3,736 9.8 -59.3°
Enters shadow 17:35:48 13° 334° (NNW) 3,508 9.6 -59.6°
Maximum altitude 17:40:46 19° 9° (N) 3,119 - -60.5°
Drops below altitude 10° 17:47:13 10° 52° (NE) 3,833 - -61.7°
Sets 17:51:45 0° 69° (ENE) 4,852 - -62.6°
